FW3305 Weather Reports


Display with metric or nautical units.
time (UTC)temp
F
wind
direction
speed
MPH
gust
MPH
rain 1hr
in
rain 24hr
in
rain mn
in
humidity
%
barometer
mb
20260906143845 76 75 4.0 6.0 0.00 0.00 0.00 77 1018.3
20260906143351 76 69 2.0 7.0 0.00 0.00 0.00 79 1018.2
20260906143116 76 87 2.0 7.0 0.00 0.00 0.00 79 1016.7
20260906142856 76 53 2.0 9.0 0.00 0.00 0.00 79 1018.1
20260906142343 76 76 4.0 9.0 0.00 0.00 0.00 80 1018.1
20260906141847 76 94 4.0 9.0 0.00 0.00 0.00 80 1018.1
20260906141623 75 82 4.0 9.0 0.00 0.00 0.00 80 1016.6
20260906141353 75 73 3.0 9.0 0.00 0.00 0.00 80 1018.1
20260906140920 75 74 3.0 7.0 0.00 0.00 0.00 82 1018.1
20260906140344 74 90 4.0 7.0 0.00 0.00 0.00 82 1018.0
20260906140139 74 64 3.0 7.0 0.00 0.00 0.00 82 1016.5
20260906135850 74 71 3.0 8.0 0.00 0.00 0.00 83 1018.0
20260906135355 74 92 2.0 6.0 0.00 0.00 0.00 83 1017.9
20260906134900 74 86 2.0 4.0 0.00 0.00 0.00 84 1017.8
20260906134605 73 67 1.0 4.0 0.00 0.00 0.00 84 1016.4
20260906134407 73 75 2.0 7.0 0.00 0.00 0.00 84 1017.9
20260906133852 73 74 2.0 7.0 0.00 0.00 0.00 84 1017.7
20260906133358 73 80 2.0 6.0 0.00 0.00 0.00 84 1017.9
20260906133111 72 76 2.0 6.0 0.00 0.00 0.00 84 1016.5
20260906132846 73 79 2.0 6.0 0.00 0.00 0.00 84 1018.0
20260906132413 73 84 3.0 6.0 0.00 0.00 0.00 84 1018.0
20260906131858 73 77 3.0 6.0 0.00 0.00 0.00 84 1018.0
20260906131622 72 90 4.0 6.0 0.00 0.00 0.00 84 1016.5
20260906131344 73 82 4.0 7.0 0.00 0.00 0.00 84 1017.9
20260906130850 73 78 2.0 8.0 0.00 0.00 0.00 84 1017.7
20260906130354 73 78 2.0 8.0 0.00 0.00 0.00 84 1017.8
20260906125841 73 94 2.0 9.0 0.00 0.00 0.00 84 1017.8
20260906125347 73 90 3.0 9.0 0.00 0.00 0.00 84 1017.8
20260906124853 73 76 2.0 4.0 0.00 0.00 0.00 85 1017.7
20260906124617 73 73 1.0 4.0 0.00 0.00 0.00 85 1016.3
20260906124359 73 76 1.0 4.0 0.00 0.00 0.00 85 1017.7
20260906123844 73 78 2.0 6.0 0.00 0.00 0.00 86 1017.6
20260906123350 74 88 1.0 5.0 0.00 0.00 0.00 86 1017.6
20260906123113 73 97 0.0 2.0 0.00 0.00 0.00 86 1016.3
20260906122917 73 97 1.0 2.0 0.00 0.00 0.00 86 1017.7
20260906122342 73 98 0.0 2.0 0.00 0.00 0.00 86 1017.6
20260906121847 73 98 0.0 2.0 0.00 0.00 0.00 86 1017.7
20260906121616 73 98 0.0 2.0 0.00 0.00 0.00 86 1016.1
20260906121353 73 98 0.0 2.0 0.00 0.00 0.00 86 1017.5
20260906120858 73 98 1.0 2.0 0.00 0.00 0.00 86 1017.7
20260906120343 73 98 0.0 2.0 0.00 0.00 0.00 86 1017.6
20260906120138 73 98 0.0 2.0 0.00 0.00 0.00 86 1016.1
20260906115849 73 98 0.0 1.0 0.00 0.00 0.00 86 1017.6
20260906115356 73 98 0.0 2.0 0.00 0.00 0.00 86 1017.5
20260906114841 73 98 0.0 2.0 0.00 0.00 0.00 86 1017.6
20260906114609 72 98 0.0 2.0 0.00 0.00 0.00 86 1016.1
20260906114347 73 98 0.0 1.0 0.00 0.00 0.00 86 1017.3
20260906113853 73 98 0.0 1.0 0.00 0.00 0.00 86 1017.2
20260906113400 73 98 0.0 1.0 0.00 0.00 0.00 86 1017.0
20260906113103 72 98 0.0 3.0 0.00 0.00 0.00 85 1015.5
20260906112845 73 98 0.0 4.0 0.00 0.00 0.00 85 1016.9
20260906112352 73 98 2.0 4.0 0.00 0.00 0.00 86 1016.9
20260906111857 73 89 0.0 3.0 0.00 0.00 0.00 85 1016.9
20260906111622 73 89 0.0 3.0 0.00 0.00 0.00 85 1015.4
20260906111344 73 90 1.0 3.0 0.00 0.00 0.00 85 1016.7
20260906110850 73 78 0.0 5.0 0.00 0.00 0.00 85 1016.7
20260906110341 74 77 1.0 5.0 0.00 0.00 0.00 85 1016.6
20260906110132 73 76 1.0 5.0 0.00 0.00 0.00 85 1015.1
20260906105845 74 98 1.0 4.0 0.00 0.00 0.00 85 1016.7
20260906105351 74 102 1.0 4.0 0.00 0.00 0.00 85 1016.8
20260906104857 74 102 1.0 4.0 0.00 0.00 0.00 85 1016.7
20260906104621 73 103 1.0 5.0 0.00 0.00 0.00 85 1015.3
20260906104347 74 111 2.0 5.0 0.00 0.00 0.00 84 1016.7
20260906103852 74 82 2.0 3.0 0.00 0.00 0.00 84 1016.8
20260906103415 74 81 1.0 2.0 0.00 0.00 0.00 84 1016.7
20260906103118 74 80 0.0 2.0 0.00 0.00 0.00 84 1015.2
20260906102920 74 80 0.0 2.0 0.00 0.00 0.00 84 1016.7
20260906102406 75 80 0.0 2.0 0.00 0.00 0.00 84 1016.8
20260906101851 75 79 1.0 2.0 0.00 0.00 0.00 84 1016.8
20260906101625 74 80 0.0 2.0 0.00 0.00 0.00 84 1015.4
20260906101357 75 80 1.0 2.0 0.00 0.00 0.00 84 1016.8
20260906100842 75 81 0.0 3.0 0.00 0.00 0.00 84 1016.7
20260906100410 75 80 1.0 3.0 0.00 0.00 0.00 84 1016.6
20260906100144 74 77 0.0 2.0 0.00 0.00 0.00 84 1015.1
20260906095856 75 78 0.0 3.0 0.00 0.00 0.00 84 1016.5
20260906095342 75 78 0.0 4.0 0.00 0.00 0.00 84 1016.5
20260906094848 75 80 1.0 4.0 0.00 0.00 0.00 84 1016.4
20260906094613 75 78 0.0 4.0 0.00 0.00 0.00 84 1014.8
20260906094354 75 78 1.0 4.0 0.00 0.00 0.00 83 1016.3
20260906093859 75 80 0.0 2.0 0.00 0.00 0.00 83 1016.2
20260906093403 75 79 0.0 2.0 0.00 0.00 0.00 84 1016.3
20260906093106 75 79 0.0 2.0 0.00 0.00 0.00 84 1014.7
20260906092848 75 79 0.0 2.0 0.00 0.00 0.00 84 1016.3
20260906092355 76 79 0.0 2.0 0.00 0.00 0.00 84 1016.2
20260906091921 75 79 0.0 2.0 0.00 0.00 0.00 84 1016.2
20260906091345 75 79 0.0 1.0 0.00 0.00 0.00 84 1016.2
20260906090850 75 80 0.0 4.0 0.00 0.00 0.00 84 1016.1
20260906090355 76 79 1.0 6.0 0.00 0.00 0.00 84 1016.0
20260906090149 75 79 0.0 6.0 0.00 0.00 0.00 84 1014.4
20260906085841 76 90 1.0 4.0 0.00 0.00 0.00 84 1015.8
20260906085407 76 86 2.0 4.0 0.00 0.00 0.00 84 1015.8
20260906084852 76 78 1.0 5.0 0.00 0.00 0.00 83 1015.8
20260906084617 75 73 1.0 5.0 0.00 0.00 0.00 83 1014.2
20260906084358 76 75 1.0 5.0 0.00 0.00 0.00 83 1015.7
20260906083843 76 88 1.0 7.0 0.00 0.00 0.00 83 1015.7
20260906083348 76 87 1.0 7.0 0.00 0.00 0.00 83 1015.7
20260906083113 76 86 1.0 7.0 0.00 0.00 0.00 83 1014.2
20260906082855 76 90 1.0 4.0 0.00 0.00 0.00 83 1015.7
20260906082421 76 91 1.0 4.0 0.00 0.00 0.00 83 1015.6
20260906081845 76 88 0.0 3.0 0.00 0.00 0.00 83 1015.8
20260906081610 76 88 0.0 3.0 0.00 0.00 0.00 83 1014.3
20260906081413 76 94 1.0 3.0 0.00 0.00 0.00 83 1015.9
20260906080919 77 94 1.0 3.0 0.00 0.00 0.00 83 1015.9
20260906080406 77 84 1.0 3.0 0.00 0.00 0.00 83 1016.0
20260906080141 76 84 1.0 3.0 0.00 0.00 0.00 83 1014.5
20260906075852 77 80 1.0 5.0 0.00 0.00 0.00 83 1016.1
20260906075357 77 81 2.0 5.0 0.00 0.00 0.00 83 1016.1
20260906074843 77 74 1.0 4.0 0.00 0.00 0.00 83 1016.0
20260906074606 77 72 1.0 5.0 0.00 0.00 0.00 83 1014.5
20260906074347 77 75 2.0 5.0 0.00 0.00 0.00 83 1016.0
20260906073853 77 79 1.0 6.0 0.00 0.00 0.00 82 1016.0
20260906073359 77 83 2.0 6.0 0.00 0.00 0.00 82 1015.9
20260906073102 77 79 1.0 5.0 0.00 0.00 0.00 82 1014.4
20260906072844 78 82 3.0 5.0 0.00 0.00 0.00 82 1015.9
20260906072350 78 103 2.0 9.0 0.00 0.00 0.00 82 1015.9
20260906071855 78 86 3.0 9.0 0.00 0.00 0.00 82 1015.9
20260906071501 77 81 1.0 5.0 0.00 0.00 0.00 82 1014.4
20260906071400 78 84 2.0 11.0 0.00 0.00 0.00 82 1015.8
20260906070846 78 81 2.0 11.0 0.00 0.00 0.00 82 1015.8
20260906070350 78 76 4.0 8.0 0.00 0.00 0.00 81 1015.7
20260906070145 78 120 2.0 8.0 0.00 0.00 0.00 82 1014.2
20260906065857 78 86 3.0 5.0 0.00 0.00 0.00 81 1015.7
20260906065341 79 74 2.0 6.0 0.00 0.00 0.00 81 1015.9
20260906064848 79 80 1.0 5.0 0.00 0.00 0.00 81 1015.9
20260906064612 78 75 1.0 5.0 0.00 0.00 0.00 81 1014.4
20260906064355 79 92 2.0 5.0 0.00 0.00 0.00 81 1015.9
20260906063921 79 85 2.0 8.0 0.00 0.00 0.00 80 1015.9
20260906063344 79 77 3.0 8.0 0.00 0.00 0.00 80 1015.9
20260906063108 79 80 1.0 5.0 0.00 0.00 0.00 81 1014.4
20260906062851 79 74 2.0 5.0 0.00 0.00 0.00 81 1015.9
20260906062355 79 87 3.0 13.0 0.00 0.00 0.00 81 1015.8
20260906061900 79 69 2.0 7.0 0.00 0.00 0.00 82 1015.9
20260906061604 79 109 3.0 6.0 0.00 0.00 0.00 82 1014.4
20260906061346 80 82 3.0 6.0 0.00 0.00 0.00 82 1016.0
20260906060851 80 71 2.0 4.0 0.00 0.00 0.00 82 1016.0
20260906060357 80 80 1.0 3.0 0.00 0.00 0.00 82 1015.9
20260906055843 80 78 1.0 3.0 0.00 0.00 0.00 82 1016.0
20260906055348 80 84 1.0 3.0 0.00 0.00 0.00 81 1015.9
20260906054854 80 86 1.0 5.0 0.00 0.00 0.00 81 1015.8
20260906054500 80 84 0.0 6.0 0.00 0.00 0.00 81 1014.3
20260906054359 80 83 1.0 6.0 0.00 0.00 0.00 81 1015.9
20260906053846 81 127 2.0 8.0 0.00 0.00 0.00 81 1015.7
20260906053350 81 86 2.0 8.0 0.00 0.00 0.00 82 1015.7
20260906053117 80 107 2.0 8.0 0.00 0.00 0.00 82 1014.2
20260906052917 81 82 2.0 6.0 0.00 0.00 0.00 82 1015.7
20260906052342 81 73 2.0 6.0 0.00 0.00 0.00 82 1015.6
20260906051848 81 97 2.0 7.0 0.00 0.00 0.00 82 1015.6
20260906051611 81 78 2.0 7.0 0.00 0.00 0.00 82 1014.1
20260906051352 81 80 2.0 6.0 0.00 0.00 0.00 81 1015.6
20260906050842 82 111 2.0 5.0 0.00 0.00 0.00 81 1015.5
20260906050348 82 88 2.0 4.0 0.00 0.00 0.00 81 1015.4
20260906050138 81 84 2.0 4.0 0.00 0.00 0.00 81 1014.0
20260906045850 82 78 1.0 4.0 0.00 0.00 0.00 80 1015.4
20260906045356 82 84 2.0 6.0 0.00 0.00 0.00 80 1015.4
20260906044903 82 94 2.0 6.0 0.00 0.00 0.00 80 1015.3
20260906044606 82 77 1.0 6.0 0.00 0.00 0.00 80 1013.7
20260906044348 83 117 2.0 6.0 0.00 0.00 0.00 80 1015.2
20260906043852 83 73 1.0 6.0 0.00 0.00 0.00 79 1015.1
20260906043342 83 93 2.0 6.0 0.00 0.00 0.00 79 1015.2
20260906043124 83 75 1.0 5.0 0.00 0.00 0.00 79 1013.6
20260906042847 83 76 3.0 5.0 0.00 0.00 0.00 78 1015.1
20260906042410 83 65 3.0 5.0 0.00 0.00 0.00 78 1015.0
20260906041855 84 75 2.0 9.0 0.00 0.00 0.00 77 1015.1
20260906041619 83 74 1.0 9.0 0.00 0.00 0.00 77 1013.5
20260906041344 84 75 2.0 9.0 0.00 0.00 0.00 77 1015.0
20260906040849 84 100 2.0 6.0 0.00 0.00 0.00 77 1014.9
20260906040355 84 77 2.0 8.0 0.00 0.00 0.00 77 1014.8
20260906040020 83 63 1.0 10.0 0.00 0.00 0.00 77 1013.2
20260906035917 84 68 3.0 10.0 0.00 0.00 0.00 77 1014.7
20260906035341 84 68 4.0 10.0 0.00 0.00 0.00 77 1014.6
20260906034846 84 72 2.0 6.0 0.00 0.00 0.00 77 1014.5
20260906034611 84 73 2.0 7.0 0.00 0.00 0.00 76 1013.0
20260906034352 84 96 1.0 6.0 0.00 0.00 0.00 76 1014.6
20260906033844 85 75 1.0 4.0 0.00 0.00 0.00 76 1014.5
20260906033349 85 84 2.0 4.0 0.00 0.00 0.00 75 1014.5
20260906033111 84 91 1.0 4.0 0.00 0.00 0.00 75 1013.0
20260906032856 85 91 2.0 4.0 0.00 0.00 0.00 75 1014.5
20260906032340 85 92 1.0 3.0 0.00 0.00 0.00 74 1014.5
20260906031847 85 96 2.0 3.0 0.00 0.00 0.00 74 1014.5
20260906031606 85 92 0.0 3.0 0.00 0.00 0.00 74 1012.9
20260906031353 86 95 1.0 3.0 0.00 0.00 0.00 74 1014.5
20260906030859 86 104 2.0 3.0 0.00 0.00 0.00 74 1014.5
20260906030343 86 84 0.0 4.0 0.00 0.00 0.00 73 1014.5
20260906030133 85 84 1.0 4.0 0.00 0.00 0.00 73 1012.9
20260906025850 86 84 2.0 4.0 0.00 0.00 0.00 73 1014.5
20260906025356 86 79 2.0 6.0 0.00 0.00 0.00 72 1014.5
20260906024903 86 72 2.0 5.0 0.00 0.00 0.00 72 1014.4
20260906024508 86 68 1.0 5.0 0.00 0.00 0.00 72 1012.9
20260906024407 86 82 2.0 6.0 0.00 0.00 0.00 71 1014.4
20260906023852 87 74 2.0 5.0 0.00 0.00 0.00 71 1014.4
20260906023415 87 82 1.0 5.0 0.00 0.00 0.00 70 1014.4
20260906023118 86 82 1.0 5.0 0.00 0.00 0.00 70 1012.8
20260906022844 87 71 2.0 5.0 0.00 0.00 0.00 70 1014.4
20260906022345 87 81 1.0 8.0 0.00 0.00 0.00 70 1014.4
20260906021912 87 80 3.0 8.0 0.00 0.00 0.00 69 1014.3
20260906021616 87 80 0.0 6.0 0.00 0.00 0.00 69 1012.7
20260906021356 87 80 1.0 6.0 0.00 0.00 0.00 69 1014.3
20260906020842 88 69 1.0 4.0 0.00 0.00 0.00 69 1014.2
20260906020349 88 66 1.0 3.0 0.00 0.00 0.00 68 1014.3
20260906020017 87 62 1.0 5.0 0.00 0.00 0.00 68 1012.6
20260906015916 88 81 1.0 5.0 0.00 0.00 0.00 68 1014.1
20260906015400 88 84 1.0 5.0 0.00 0.00 0.00 67 1014.0
20260906014907 88 83 1.0 6.0 0.00 0.00 0.00 66 1014.0
20260906014612 88 83 1.0 6.0 0.00 0.00 0.00 66 1012.4
20260906014351 89 84 1.0 6.0 0.00 0.00 0.00 66 1014.0
20260906013857 89 84 2.0 6.0 0.00 0.00 0.00 65 1013.9
20260906013344 89 80 1.0 4.0 0.00 0.00 0.00 65 1013.7
20260906013105 89 76 1.0 4.0 0.00 0.00 0.00 64 1012.2
20260906012848 89 84 2.0 4.0 0.00 0.00 0.00 64 1013.6
20260906012353 89 92 1.0 4.0 0.00 0.00 0.00 63 1013.5
20260906011900 90 87 1.0 4.0 0.00 0.00 0.00 63 1013.5
20260906011623 89 88 0.0 4.0 0.00 0.00 0.00 63 1011.9
20260906011345 90 88 1.0 5.0 0.00 0.00 0.00 63 1013.4
20260906010849 90 77 1.0 5.0 0.00 0.00 0.00 63 1013.4
20260906010354 90 71 1.0 4.0 0.00 0.00 0.00 63 1013.4
20260906010149 90 85 0.0 4.0 0.00 0.00 0.00 62 1011.8
20260906005840 91 81 2.0 4.0 0.00 0.00 0.00 62 1013.4
20260906005408 91 55 0.0 4.0 0.00 0.00 0.00 61 1013.3
20260906004854 91 55 2.0 4.0 0.00 0.00 0.00 61 1013.4
20260906004618 90 360 1.0 3.0 0.00 0.00 0.00 61 1011.8
20260906004359 91 75 0.0 3.0 0.00 0.00 0.00 61 1013.3
20260906003906 91 74 0.0 3.0 0.00 0.00 0.00 60 1013.3
20260906003412 91 74 1.0 3.0 0.00 0.00 0.00 60 1013.3
20260906003116 91 74 0.0 1.0 0.00 0.00 0.00 60 1011.7
20260906002857 91 74 0.0 2.0 0.00 0.00 0.00 60 1013.3
20260906002342 91 74 0.0 2.0 0.00 0.00 0.00 60 1013.3
20260906001848 92 76 1.0 3.0 0.00 0.00 0.00 59 1013.4
20260906001611 91 75 0.0 4.0 0.00 0.00 0.00 59 1011.8
20260906001353 92 76 1.0 4.0 0.00 0.00 0.00 59 1013.3
20260906000858 92 78 1.0 4.0 0.00 0.00 0.00 59 1013.4
20260906000344 92 76 2.0 4.0 0.00 0.00 0.00 58 1013.4
20260906000141 91 76 1.0 4.0 0.00 0.00 0.00 58 1011.9
20260905235851 92 83 0.0 3.0 0.00 0.00 0.00 59 1013.4
20260905235419 92 78 1.0 4.0 0.00 0.00 0.00 58 1013.4
20260905234906 92 80 1.0 4.0 0.00 0.00 0.00 58 1013.3
20260905234612 92 80 1.0 4.0 0.00 0.00 0.00 58 1011.8
20260905234351 92 76 1.0 2.0 0.00 0.00 0.00 57 1013.2
20260905233858 92 73 0.0 3.0 0.00 0.00 0.00 57 1013.3
20260905233405 93 74 1.0 4.0 0.00 0.00 0.00 57 1013.1
20260905233108 92 84 0.0 6.0 0.00 0.00 0.00 57 1011.5
20260905232850 93 84 1.0 6.0 0.00 0.00 0.00 57 1013.1
20260905232356 93 84 2.0 6.0 0.00 0.00 0.00 56 1013.1
20260905231901 93 95 1.0 4.0 0.00 0.00 0.00 56 1013.1
20260905231617 93 96 0.0 4.0 0.00 0.00 0.00 56 1011.6
20260905231347 94 17 1.0 4.0 0.00 0.00 0.00 56 1013.2
20260905230852 94 68 1.0 4.0 0.00 0.00 0.00 56 1013.2
20260905230358 94 80 1.0 4.0 0.00 0.00 0.00 55 1013.1
20260905230135 94 86 1.0 3.0 0.00 0.00 0.00 55 1011.6
20260905225845 95 117 1.0 5.0 0.00 0.00 0.00 55 1013.1
20260905225350 95 63 1.0 5.0 0.00 0.00 0.00 54 1013.1
20260905224857 95 70 2.0 9.0 0.00 0.00 0.00 54 1013.1
20260905224503 95 50 3.0 9.0 0.00 0.00 0.00 54 1011.5
20260905224402 96 319 2.0 8.0 0.00 0.00 0.00 53 1013.1
20260905223847 96 56 1.0 5.0 0.00 0.00 0.00 52 1012.9
20260905223351 96 63 0.0 3.0 0.00 0.00 0.00 51 1012.9
20260905223116 95 63 0.0 3.0 0.00 0.00 0.00 51 1011.3
20260905222919 96 63 1.0 3.0 0.00 0.00 0.00 51 1012.9
20260905222403 96 63 2.0 4.0 0.00 0.00 0.00 50 1013.0
20260905221847 96 63 1.0 5.0 0.00 0.00 0.00 51 1013.0
20260905221610 96 23 1.0 8.0 0.00 0.00 0.00 51 1011.3
20260905221353 96 28 2.0 8.0 0.00 0.00 0.00 51 1012.9
20260905220859 96 60 1.0 4.0 0.00 0.00 0.00 52 1012.9
20260905220344 96 74 2.0 5.0 0.00 0.00 0.00 51 1013.0
20260905220138 96 88 2.0 5.0 0.00 0.00 0.00 51 1011.4
20260905215850 96 315 1.0 5.0 0.00 0.00 0.00 52 1012.9
20260905215357 96 52 2.0 4.0 0.00 0.00 0.00 52 1013.0
20260905214842 96 63 2.0 5.0 0.00 0.00 0.00 53 1013.0
20260905214605 95 79 0.0 5.0 0.00 0.00 0.00 52 1011.4
20260905214348 96 79 1.0 5.0 0.00 0.00 0.00 53 1013.0
20260905213914 96 69 1.0 3.0 0.00 0.00 0.00 53 1013.1
20260905213420 96 67 0.0 1.0 0.00 0.00 0.00 53 1013.2
20260905213123 95 67 0.0 1.0 0.00 0.00 0.00 53 1011.6
20260905212843 96 67 0.0 1.0 0.00 0.00 0.00 53 1013.2
20260905212348 96 67 0.0 3.0 0.00 0.00 0.00 52 1013.3
20260905211915 96 67 1.0 5.0 0.00 0.00 0.00 51 1013.2
20260905211501 96 67 1.0 5.0 0.00 0.00 0.00 51 1011.7
20260905211359 96 76 1.0 5.0 0.00 0.00 0.00 51 1013.3
20260905210845 97 79 2.0 4.0 0.00 0.00 0.00 50 1013.3
20260905210350 97 78 1.0 3.0 0.00 0.00 0.00 49 1013.3
20260905210145 97 78 1.0 3.0 0.00 0.00 0.00 49 1011.8
20260905205857 97 80 1.0 7.0 0.00 0.00 0.00 49 1013.3
20260905205342 98 82 1.0 7.0 0.00 0.00 0.00 49 1013.3
20260905204847 98 38 1.0 8.0 0.00 0.00 0.00 49 1013.4
20260905204611 98 25 1.0 8.0 0.00 0.00 0.00 49 1012.0
20260905204353 99 5 3.0 8.0 0.00 0.00 0.00 48 1013.6
20260905203920 99 90 3.0 7.0 0.00 0.00 0.00 47 1013.5
20260905203343 99 320 1.0 8.0 0.00 0.00 0.00 47 1013.6
20260905203107 98 320 0.0 8.0 0.00 0.00 0.00 46 1012.1
20260905202848 99 320 1.0 8.0 0.00 0.00 0.00 46 1013.7
20260905202354 99 25 2.0 3.0 0.00 0.00 0.00 48 1013.7
20260905201900 99 30 1.0 3.0 0.00 0.00 0.00 48 1013.8
20260905201624 98 30 1.0 3.0 0.00 0.00 0.00 48 1012.2
20260905201344 99 30 1.0 4.0 0.00 0.00 0.00 47 1013.7
20260905200911 98 17 1.0 4.0 0.00 0.00 0.00 47 1013.7
20260905200356 98 22 1.0 4.0 0.00 0.00 0.00 48 1013.8
20260905200152 98 360 0.0 3.0 0.00 0.00 0.00 47 1012.2
20260905195844 98 360 1.0 3.0 0.00 0.00 0.00 47 1013.9
20260905195352 98 355 1.0 5.0 0.00 0.00 0.00 48 1013.9
20260905194918 98 355 2.0 5.0 0.00 0.00 0.00 47 1014.1
20260905194621 98 13 1.0 4.0 0.00 0.00 0.00 49 1012.4
20260905194343 98 17 1.0 9.0 0.00 0.00 0.00 49 1014.0
20260905193848 98 22 3.0 9.0 0.00 0.00 0.00 49 1014.1
20260905193354 98 338 1.0 3.0 0.00 0.00 0.00 49 1014.0
20260905193118 98 338 0.0 3.0 0.00 0.00 0.00 48 1012.5
20260905192840 98 337 1.0 3.0 0.00 0.00 0.00 49 1014.1
20260905192348 98 355 1.0 4.0 0.00 0.00 0.00 48 1014.1
20260905191853 98 355 2.0 6.0 0.00 0.00 0.00 47 1014.2
20260905191616 98 346 1.0 6.0 0.00 0.00 0.00 46 1012.6
20260905191420 98 355 3.0 6.0 0.00 0.00 0.00 47 1014.3
20260905190845 98 319 1.0 9.0 0.00 0.00 0.00 46 1014.2
20260905190412 98 343 4.0 9.0 0.00 0.00 0.00 46 1014.2
20260905190146 98 10 1.0 4.0 0.00 0.00 0.00 48 1012.6
20260905185859 98 10 2.0 5.0 0.00 0.00 0.00 47 1014.3
20260905185343 99 17 1.0 5.0 0.00 0.00 0.00 47 1014.3
20260905184849 99 9 2.0 6.0 0.00 0.00 0.00 46 1014.4
20260905184612 98 322 1.0 6.0 0.00 0.00 0.00 45 1012.7
20260905184354 99 322 2.0 6.0 0.00 0.00 0.00 45 1014.2
20260905183859 99 5 2.0 3.0 0.00 0.00 0.00 44 1014.3
20260905183406 100 5 1.0 3.0 0.00 0.00 0.00 46 1014.4
20260905183108 99 355 0.0 3.0 0.00 0.00 0.00 44 1012.7
20260905182851 100 355 1.0 5.0 0.00 0.00 0.00 45 1014.4
20260905182358 100 355 2.0 6.0 0.00 0.00 0.00 44 1014.5
20260905181844 100 32 1.0 6.0 0.00 0.00 0.00 45 1014.5
20260905181608 100 9 1.0 4.0 0.00 0.00 0.00 46 1012.9
20260905181350 100 5 1.0 4.0 0.00 0.00 0.00 46 1014.5
20260905180855 100 5 1.0 4.0 0.00 0.00 0.00 46 1014.5
20260905180341 100 9 1.0 4.0 0.00 0.00 0.00 45 1014.6
20260905180136 100 9 0.0 4.0 0.00 0.00 0.00 46 1012.9
20260905175849 100 9 2.0 4.0 0.00 0.00 0.00 44 1014.6
20260905175354 100 16 1.0 5.0 0.00 0.00 0.00 47 1014.7
20260905174859 100 17 1.0 5.0 0.00 0.00 0.00 46 1014.7
20260905174505 99 12 1.0 3.0 0.00 0.00 0.00 45 1013.1
20260905174405 100 11 1.0 2.0 0.00 0.00 0.00 46 1014.7
20260905173849 100 355 0.0 3.0 0.00 0.00 0.00 46 1014.8
20260905173354 100 355 1.0 3.0 0.00 0.00 0.00 45 1014.9
20260905173123 99 355 0.0 2.0 0.00 0.00 0.00 46 1013.5
20260905172841 99 355 0.0 2.0 0.00 0.00 0.00 45 1014.9
20260905172348 99 355 1.0 3.0 0.00 0.00 0.00 45 1015.1
20260905171854 99 355 1.0 3.0 0.00 0.00 0.00 47 1015.1
20260905171619 99 355 1.0 3.0 0.00 0.00 0.00 46 1013.6
20260905171421 99 355 1.0 3.0 0.00 0.00 0.00 45 1015.3
20260905170846 99 360 1.0 4.0 0.00 0.00 0.00 46 1015.3
20260905170350 99 13 1.0 5.0 0.00 0.00 0.00 49 1015.3
20260905170145 98 12 2.0 5.0 0.00 0.00 0.00 47 1013.7
20260905165858 98 9 2.0 5.0 0.00 0.00 0.00 48 1015.4
20260905165404 98 11 1.0 3.0 0.00 0.00 0.00 50 1015.3
20260905164909 98 11 1.0 3.0 0.00 0.00 0.00 50 1015.2
20260905164611 97 11 1.0 4.0 0.00 0.00 0.00 50 1013.6
20260905164413 97 11 0.0 4.0 0.00 0.00 0.00 50 1015.1
20260905163919 97 11 2.0 4.0 0.00 0.00 0.00 50 1015.2
20260905163343 97 5 1.0 3.0 0.00 0.00 0.00 51 1015.1
20260905163107 96 5 1.0 4.0 0.00 0.00 0.00 51 1013.6
20260905162910 96 5 0.0 4.0 0.00 0.00 0.00 53 1015.1
20260905162416 96 5 2.0 4.0 0.00 0.00 0.00 52 1015.2
20260905161859 95 5 0.0 2.0 0.00 0.00 0.00 55 1014.9
20260905161622 94 5 0.0 2.0 0.00 0.00 0.00 55 1013.4
20260905161343 95 9 1.0 2.0 0.00 0.00 0.00 55 1015.1
20260905160911 95 9 0.0 2.0 0.00 0.00 0.00 56 1015.1
20260905160354 95 9 1.0 2.0 0.00 0.00 0.00 56 1015.0
20260905160002 94 13 0.0 2.0 0.00 0.00 0.00 57 1013.6
20260905155901 94 13 1.0 2.0 0.00 0.00 0.00 57 1015.0
20260905155407 94 13 0.0 2.0 0.00 0.00 0.00 57 1015.1
20260905154853 94 13 1.0 3.0 0.00 0.00 0.00 56 1015.1
20260905154617 93 9 0.0 3.0 0.00 0.00 0.00 57 1013.6
20260905154358 93 9 1.0 3.0 0.00 0.00 0.00 58 1015.1
20260905153905 92 11 1.0 3.0 0.00 0.00 0.00 58 1015.1
20260905153410 92 9 0.0 3.0 0.00 0.00 0.00 60 1015.1
20260905153109 91 9 0.0 3.0 0.00 0.00 0.00 60 1013.5
20260905152916 91 9 1.0 4.0 0.00 0.00 0.00 59 1015.1
20260905152359 91 9 2.0 4.0 0.00 0.00 0.00 60 1015.1
20260905151843 89 11 0.0 4.0 0.00 0.00 0.00 62 1015.1
20260905151646 89 11 0.0 4.0 0.00 0.00 0.00 63 1013.6
20260905151349 88 11 1.0 4.0 0.00 0.00 0.00 64 1015.1
20260905150853 88 298 0.0 0.0 0.00 0.00 0.00 65 1015.1
20260905150358 88 298 0.0 0.0 0.00 0.00 0.00 66 1015.1
20260905150149 87 298 0.0 0.0 0.00 0.00 0.00 66 1013.6
20260905145845 87 298 0.0 0.0 0.00 0.00 0.00 67 1015.1
20260905145410 87 298 0.0 0.0 0.00 0.00 0.00 67 1015.0
20260905144852 86 298 0.0 0.0 0.00 0.00 0.00 68 1015.1
20260905144612 86 298 0.0 0.0 0.00 0.00 0.00 68 1013.6
20260905144356 86 298 0.0 0.0 0.00 0.00 0.00 68 1015.1